ARIANE 1 DEB, 25765

Orbit data source: Space-Track

ARIANE 1 DEB, 25765 is space debris in HEO originally from a launch on Mon, 24 Dec 1979 UTC launched from the French Guiana (FRGUI). Debris objects in space refer to the collection of defunct objects orbiting the Earth. Examples of debris include non-operational satellites, rocket bodies, and fragments generated from explosions, collisions, or faulty payload assembly.

Loading next visibility...
Identifier
25765, 1979-104G
Orbit
HEO
Country
Flag of FRFR
Related business
Manufacturer
Unknown
Mission
Spacecraft
Bus & Motor
Unknown
Mass
Unknown
Launch date (UTC)
1979-12-24 (46 years ago)
Launch vehicle
Unknown
Launch site
French Guiana (FRGUI)
Object type
Payload
Rocket body
Debris
Shape & HBR
Unknown shape, 0.3 m
Radar Cross Section
Medium (>0.1 m² and <1 m²)

Expand to show TLE details & history
Last TLE update: 17 hours ago

TLE from 17 hours ago
0 ARIANE 1 DEB
1 25765U 79104G   25295.23208483  .00005728  00000-0  73281-2 0  9994
2 25765  19.9627 350.5407 5555679 166.6555 217.9682  4.56433412414434
Epoch: 2025-10-22T05:34Z
TLE epoch observation values (Epoch: 2025-10-22T05:34:12.129Z)
Latitude
-0°
Longitude
-123.91905°
Altitude
16,723.117 km
Speed
2.924 km/s
True Right ascension
23h 22m 09s
True Declination
0° 00' 00"
Sunlit
Object was in daylight at epoch
Visualization orbit readout
Latitude
Unknown
Longitude
Unknown
Altitude
Unknown
Speed
Unknown
Apparent Right ascension
Unknown
Apparent Declination
Unknown
Sunlit
N/A
Visualization observer readout
Local Sidereal Time
17:53:38
Azimuth
Unknown
Elevation
Unknown
Doppler factor
Unknown
Orbital elements
Apogee altitude
17,508.553 km
Perigee altitude
446.388 km
Semi-major axis
15,355.607 km
Eccentricity
0.55557
Inclination
19.9627°
RAAN
350.5407°
Arg. of periapsis
166.6555°
True anomaly
193.33788°
Mean anomaly
217.9682°
Eccentric anomaly
204.67793°
Mean motion
1.14062 °/min
Orbital period
315.62 mins
BSTAR
0.0073281
Loading maneuver chart data...
Computing Atmospheric mass density...
Loading historical data...
Loading historical data...
Loading historical data...
Loading historical data...
Loading historical data...
Loading historical data...
Loading historical data...

Documentation

Showing up to 5 results
|